Regional Weather Roundup
Issued by NWS

Home | Current Version | Previous Version | Graphics & Text | Print | Product List | Glossary On
Versions: 1 2 3 4 5 6 7 8 9 10 11 12 13 14 15 16 17 18 19 20 21 22 23 24 25 26 27 28 29 30 31 32 33 34 35 36 37 38 39 40 41 42 43 44 45 46 47 48 49 50
000
ASUS43 KLOT 280558
RWRIL

ILLINOIS REGIONAL WEATHER ROUNDUP
NATIONAL WEATHER SERVICE CHICAGO/ROMEOVILLE IL
100 AM CDT THU AUG 28 2014

NOTE: "FAIR" INDICATES FEW OR NO CLOUDS BELOW 12,000 FEET WITH NO
SIGNIFICANT WEATHER AND/OR OBSTRUCTIONS TO VISIBILITY.

* THESE STATIONS ARE NOT UNDER NWS QUALITY CONTROL. THEY ALSO MAY NOT
  REPORT WEATHER SUCH AS PRECIPITATION OR FOG.

ILZ001-002-007-009-015-016-024-280700-
NORTHWEST ILLINOIS

CITY           SKY/WX    TMP DP  RH WIND       PRES   REMARKS
MOLINE         FAIR      64  61  90 CALM      30.11S
6HR MIN TEMP:  64; 6HR MAX TEMP:  76;

$$

ILZ003-004-008-010-011-017-018-280700-
NORTH CENTRAL ILLINOIS

CITY           SKY/WX    TMP DP  RH WIND       PRES   REMARKS
ROCKFORD       NOT AVBL
$$

ILZ005-006-012>014-019>023-280700-
NORTHEAST ILLINOIS

CITY           SKY/WX    TMP DP  RH WIND       PRES   REMARKS
CHICAGO-OHARE  FAIR      68  58  70 NE5       30.13S
6HR MIN TEMP:  68; 6HR MAX TEMP:  71;

CHICAGO-MIDWAY FAIR      70  61  73 NE6       30.13R
6HR MIN TEMP:  70; 6HR MAX TEMP:  73;

AURORA         FAIR      62  59  90 CALM      30.15R
6HR MIN TEMP:  62; 6HR MAX TEMP:  74;

WAUKEGAN       FAIR      59  57  93 CALM      30.14S
6HR MIN TEMP:  59; 6HR MAX TEMP:  68;

DUPAGE AIRPORT FAIR      63  60  90 N3        30.14R
6HR MIN TEMP:  63; 6HR MAX TEMP:  72;

WHEELING       FAIR      66  60  81 CALM      30.15S
6HR MIN TEMP:  66; 6HR MAX TEMP:  71;

NORTHERLY ISL    N/A     70  59  68 NE12        N/A
$$

LMZ740>746-280700-
SOUTHERN LAKE MICHIGAN

STATION/POSITION SKY/WX   TEMP    WIND        PRES    VSBY  WAVE
                          AIR SEA DIR/SP/G                  HT/PER
                          (F)     (DEG/KT/KT) (MB)    (MI)  (FT/S)
SOUTHERN BUOY              68 69   50/ 10/ 12 1020.6R         1/ 4
WAUKEGAN HARBOR            70      70/  9/ 11   N/A
HARRISON CRIB              69      50/ 13/ 14   N/A
BURNHAM HARBOR             70      50/ 10/ 12   N/A
CALUMET HARBOR             70      40/  7/ 10 1019.0R
MICHIGAN CITY              66      50/ 10/ 13   N/A
MICHIGAN CITY 6N           69 73   80/  8/ 12   N/A           3/ 4
ST. JOSEPH                 68 73   50/ 14/ 17   N/A           2/ 4
$$

ILZ025>027-034>036-040-047-049-050-058-095>099-280700-
WEST-CENTRAL ILLINOIS

CITY           SKY/WX    TMP DP  RH WIND       PRES   REMARKS
$$

ILZ028>032-037-038-041>044-048-051>054-059>061-280700-
CENTRAL ILLINOIS

CITY           SKY/WX    TMP DP  RH WIND       PRES   REMARKS
PEORIA         NOT AVBL
SPRINGFIELD    NOT AVBL
TAYLORVILLE    NOT AVBL
$$

ILZ033-039-045-046-055>057-062-063-280700-
EAST-CENTRAL ILLINOIS

CITY           SKY/WX    TMP DP  RH WIND       PRES   REMARKS
CHAMPAIGN      FAIR      68  64  87 NE9       30.09S
$$

ILZ079-100>102-280700-
SOUTHWEST ILLINOIS

CITY           SKY/WX    TMP DP  RH WIND       PRES   REMARKS
BELLEVILLE     FAIR      72  72 100 SW1       30.04F FOG
$$

ILZ064>066-069>071-074>076-080>082-084>086-088>090-092>094-280700-
SOUTH-CENTRAL ILLINOIS

CITY           SKY/WX    TMP DP  RH WIND       PRES   REMARKS
CARBONDALE     FAIR      73  70  90 CALM      30.05R
6HR MIN TEMP:  73; 6HR MAX TEMP:  85;

$$

ILZ067-068-072-073-078-083-087-091-280700-
SOUTHEAST ILLINOIS

CITY           SKY/WX    TMP DP  RH WIND       PRES   REMARKS
$$

ABBREVIATIONS USED IN REMARKS
   TC - TEMPERATURE IN CELSIUS
  WCI - WIND CHILL INDEX
   HX - HEAT INDEX
  VSB - VISIBILITY
$$




USA.gov is the U.S. government's official web portal to all federal, state and local government web resources and services.